When you browse on this site, cookies collect data to enhance your experience and personalize the content and advertising you see.
Visit our Privacy Policy to learn more. By continuing to use the site, you agree to this use of cookies and data.
  • In Hungary
  • List of Countries
  • For 7 days
  • Water Temperature
  • Satellite Maps
  • Weather Map
  • News
  • Weather Widgets
  • user-avatar
    Login

    Hourly Weather Kichmalka

    Today, 15 December, Saturday

    Time Temperature Precipitation Wind Pressure Humidity
    00:00 -5°C° 0 mm 2 mps 658 mmHg 63%
    01:00 -5°C° 0 mm 2 mps 658 mmHg 62%
    02:00 -5°C° 0 mm 2 mps 658 mmHg 61%
    03:00 -5°C° 0 mm 2 mps 657 mmHg 60%
    04:00 -5°C° 0 mm 2 mps 658 mmHg 59%
    05:00 -5°C° 0 mm 2 mps 658 mmHg 58%
    06:00 -5°C° 0 mm 2 mps 658 mmHg 57%
    07:00 -4°C° 0 mm 2 mps 658 mmHg 55%
    08:00 -4°C° 0 mm 2 mps 658 mmHg 53%
    09:00 -3°C° 0 mm 2 mps 658 mmHg 51%
    10:00 -2°C° 0 mm 2 mps 659 mmHg 50%
    11:00 +1°C° 0 mm 1 mps 659 mmHg 49%
    12:00 +2°C° 0 mm 1 mps 659 mmHg 48%
    13:00 +2°C° 0 mm 1 mps 659 mmHg 50%
    14:00 +2°C° 0 mm 1 mps 658 mmHg 53%
    15:00 +2°C° 0 mm 1 mps 658 mmHg 55%
    16:00 +1°C° 0 mm 1 mps 658 mmHg 59%
    17:00 +1°C° 0 mm 1 mps 658 mmHg 62%
    18:00 0°C° 0 mm 1 mps 658 mmHg 65%
    19:00 0°C° 0 mm 1 mps 658 mmHg 65%
    20:00 0°C° 0 mm 1 mps 658 mmHg 65%
    21:00 0°C° 0 mm 1 mps 658 mmHg 65%
    22:00 0°C° 0 mm 1 mps 658 mmHg 65%
    23:00 0°C° 0 mm 1 mps 658 mmHg 65%

    Tomorrow, 16 December, Sunday

    Time Temperature Precipitation Wind Pressure Humidity
    00:00 0°C° 0 mm 1 mps 658 mmHg 66%
    01:00 0°C° 0.2 mm 1 mps 658 mmHg 68%
    02:00 0°C° 0.2 mm 1 mps 658 mmHg 71%
    03:00 -1°C° 0.2 mm 1 mps 658 mmHg 74%
    04:00 -1°C° 0.3 mm 1 mps 658 mmHg 76%
    05:00 -2°C° 0.3 mm 0 mps 658 mmHg 78%
    06:00 -2°C° 0.3 mm 0 mps 658 mmHg 81%
    07:00 -1°C° 0.1 mm 1 mps 658 mmHg 81%
    08:00 0°C° 0.1 mm 1 mps 659 mmHg 81%
    09:00 0°C° 0.1 mm 1 mps 659 mmHg 82%
    10:00 0°C° 0 mm 1 mps 659 mmHg 81%
    11:00 -1°C° 0 mm 2 mps 659 mmHg 80%
    12:00 -1°C° 0 mm 2 mps 659 mmHg 79%
    13:00 -1°C° 0 mm 2 mps 658 mmHg 81%
    14:00 -2°C° 0 mm 2 mps 658 mmHg 83%
    15:00 -2°C° 0 mm 2 mps 658 mmHg 86%
    16:00 -3°C° 0 mm 2 mps 658 mmHg 86%
    17:00 -3°C° 0 mm 2 mps 658 mmHg 87%
    18:00 -4°C° 0 mm 2 mps 658 mmHg 88%
    19:00 -4°C° 0 mm 2 mps 658 mmHg 87%
    20:00 -4°C° 0 mm 2 mps 658 mmHg 86%
    21:00 -5°C° 0 mm 3 mps 658 mmHg 84%
    22:00 -5°C° 0 mm 3 mps 658 mmHg 83%
    23:00 -5°C° 0 mm 3 mps 658 mmHg 82%

    Day after tomorrow, 17 December, Monday

    Time Temperature Precipitation Wind Pressure Humidity
    00:00 -5°C° 0 mm 3 mps 658 mmHg 81%
    01:00 -5°C° 0 mm 3 mps 658 mmHg 80%
    02:00 -5°C° 0 mm 3 mps 657 mmHg 79%
    03:00 -5°C° 0 mm 3 mps 657 mmHg 78%
    04:00 -5°C° 0 mm 3 mps 657 mmHg 78%
    05:00 -5°C° 0 mm 3 mps 657 mmHg 78%
    06:00 -5°C° 0 mm 3 mps 657 mmHg 78%
    07:00 -5°C° 0 mm 3 mps 657 mmHg 77%
    08:00 -5°C° 0 mm 3 mps 657 mmHg 76%
    09:00 -5°C° 0 mm 3 mps 657 mmHg 75%
    10:00 -4°C° 0 mm 3 mps 657 mmHg 74%
    11:00 -2°C° 0 mm 3 mps 657 mmHg 72%
    12:00 -1°C° 0 mm 3 mps 656 mmHg 71%
    13:00 -2°C° 0 mm 3 mps 656 mmHg 73%
    14:00 -2°C° 0 mm 3 mps 656 mmHg 74%
    15:00 -2°C° 0 mm 3 mps 656 mmHg 76%
    16:00 -4°C° 0 mm 3 mps 656 mmHg 78%
    17:00 -4°C° 0 mm 3 mps 656 mmHg 80%
    18:00 -4°C° 0 mm 2 mps 656 mmHg 82%
    19:00 -5°C° 0 mm 3 mps 656 mmHg 81%
    20:00 -5°C° 0 mm 3 mps 656 mmHg 81%
    21:00 -5°C° 0 mm 3 mps 656 mmHg 80%
    22:00 -5°C° 0 mm 3 mps 656 mmHg 80%
    23:00 -5°C° 0 mm 3 mps 656 mmHg 80%

    18 December, Tuesday

    Time Temperature Precipitation Wind Pressure Humidity
    00:00 -5°C° 0 mm 3 mps 656 mmHg 80%
    01:00 -4°C° 0 mm 2 mps 656 mmHg 80%
    02:00 -4°C° 0 mm 2 mps 656 mmHg 80%
    03:00 -4°C° 0 mm 2 mps 656 mmHg 81%
    04:00 -4°C° 0 mm 2 mps 656 mmHg 81%
    05:00 -4°C° 0 mm 2 mps 656 mmHg 82%
    06:00 -4°C° 0 mm 2 mps 655 mmHg 82%
    07:00 -4°C° 0 mm 2 mps 656 mmHg 81%
    08:00 -3°C° 0 mm 2 mps 656 mmHg 80%
    09:00 -3°C° 0 mm 2 mps 656 mmHg 79%
    10:00 -2°C° 0 mm 2 mps 656 mmHg 78%
    11:00 -1°C° 0 mm 2 mps 656 mmHg 76%
    12:00 -1°C° 0 mm 3 mps 656 mmHg 75%
    13:00 -1°C° 0 mm 2 mps 656 mmHg 78%
    14:00 -1°C° 0 mm 2 mps 656 mmHg 80%
    15:00 -1°C° 0 mm 2 mps 656 mmHg 83%
    16:00 -2°C° 0 mm 2 mps 656 mmHg 85%
    17:00 -2°C° 0 mm 2 mps 656 mmHg 87%
    18:00 -3°C° 0 mm 2 mps 656 mmHg 89%
    19:00 -3°C° 0 mm 2 mps 656 mmHg 88%
    20:00 -3°C° 0 mm 2 mps 656 mmHg 87%
    21:00 -3°C° 0 mm 2 mps 656 mmHg 86%
    22:00 -3°C° 0 mm 2 mps 656 mmHg 86%
    23:00 -3°C° 0 mm 2 mps 656 mmHg 85%

    19 December, Wednesday

    Time Temperature Precipitation Wind Pressure Humidity
    00:00 -3°C° 0 mm 2 mps 656 mmHg 84%
    01:00 -3°C° 0 mm 2 mps 655 mmHg 84%
    02:00 -3°C° 0 mm 2 mps 655 mmHg 83%
    03:00 -3°C° 0 mm 2 mps 655 mmHg 82%
    04:00 -3°C° 0 mm 2 mps 655 mmHg 82%
    05:00 -3°C° 0 mm 2 mps 655 mmHg 81%
    06:00 -3°C° 0 mm 2 mps 655 mmHg 80%
    07:00 -4°C° 0 mm 3 mps 655 mmHg 78%
    08:00 -4°C° 0 mm 3 mps 655 mmHg 77%
    09:00 -2°C° 0 mm 3 mps 655 mmHg 75%
    10:00 -2°C° 0 mm 3 mps 655 mmHg 74%
    11:00 -1°C° 0 mm 3 mps 655 mmHg 73%
    12:00 0°C° 0 mm 3 mps 654 mmHg 73%
    13:00 0°C° 0 mm 3 mps 654 mmHg 75%
    14:00 -1°C° 0 mm 3 mps 654 mmHg 77%
    15:00 -1°C° 0 mm 3 mps 654 mmHg 79%
    16:00 -1°C° 0 mm 3 mps 654 mmHg 80%
    17:00 -2°C° 0 mm 3 mps 654 mmHg 81%
    18:00 -2°C° 0 mm 3 mps 653 mmHg 82%
    19:00 -2°C° 0 mm 3 mps 653 mmHg 82%
    20:00 -2°C° 0 mm 3 mps 653 mmHg 81%
    21:00 -2°C° 0 mm 3 mps 653 mmHg 80%
    22:00 -2°C° 0 mm 3 mps 653 mmHg 82%
    23:00 -2°C° 0 mm 3 mps 652 mmHg 83%

    20 December, Thursday

    Time Temperature Precipitation Wind Pressure Humidity
    00:00 -2°C° 0 mm 3 mps 652 mmHg 84%
    01:00 -2°C° 0.1 mm 3 mps 652 mmHg 86%
    02:00 -2°C° 0.1 mm 2 mps 652 mmHg 87%
    03:00 -2°C° 0.1 mm 2 mps 652 mmHg 89%
    04:00 -2°C° 0.1 mm 2 mps 652 mmHg 89%
    05:00 -2°C° 0.1 mm 2 mps 652 mmHg 90%
    06:00 -2°C° 0.1 mm 2 mps 652 mmHg 91%
    07:00 -2°C° 0.2 mm 2 mps 653 mmHg 91%
    08:00 -2°C° 0.2 mm 2 mps 653 mmHg 91%
    09:00 -2°C° 0.2 mm 2 mps 653 mmHg 90%
    10:00 -1°C° 0.3 mm 2 mps 653 mmHg 91%
    11:00 -1°C° 0.3 mm 2 mps 653 mmHg 91%
    12:00 -1°C° 0.3 mm 2 mps 653 mmHg 91%
    13:00 +1°C° 0.6 mm 1 mps 654 mmHg 93%
    14:00 +1°C° 0.6 mm 1 mps 654 mmHg 94%
    15:00 +1°C° 0.6 mm 1 mps 654 mmHg 96%
    16:00 +1°C° 0.6 mm 1 mps 654 mmHg 96%
    17:00 +1°C° 0.6 mm 1 mps 655 mmHg 96%
    18:00 0°C° 0.6 mm 1 mps 655 mmHg 97%
    19:00 0°C° 0.5 mm 1 mps 656 mmHg 96%
    20:00 0°C° 0.5 mm 1 mps 656 mmHg 96%
    21:00 0°C° 0.5 mm 1 mps 656 mmHg 96%
    22:00 0°C° 0.3 mm 1 mps 656 mmHg 96%
    23:00 0°C° 0.3 mm 1 mps 657 mmHg 95%
    Show more